Location: *
(44.5833°N, 10.3167°E)
Time: 06:59:35
(UTC+00:00)

Daily predictions for brighter satellites

Satellite Brightness Start Highest point End
(mag) Time Altitude Azimuth Time Altitude Azimuth Time Altitude Azimuth
SL-16 R/B 2.4 16:42:07 10° NNW 16:47:40 52° ENE 16:53:10 10° SE
Cosmos 1812 Rocket 4.3 16:44:36 10° NNW 16:49:01 60° W 16:53:24 10° S
USA 102 4.4 16:47:19 10° SSE 16:50:25 70° WSW 16:56:00 10° NNW
Cosmos 1939 Rocket 4.5 16:48:22 10° E 16:50:38 15° ENE 16:52:56 10° NNE
SL-8 Rocket 4.1 16:47:59 10° SSE 16:54:06 55° E 17:00:12 10° NNE
Cosmos 44 3.1 16:50:01 10° SSW 16:54:37 89° ESE 16:59:03 10° NE
Cosmos 2082 3.8 16:49:23 10° S 16:54:53 60° ESE 17:00:27 10° NNE
Cosmos 2219 3.9 16:50:31 10° SW 16:56:02 55° WNW 17:01:35 10° NNE
YAOGAN 1 3.6 16:54:51 10° ESE 16:58:24 25° ENE 17:01:57 10° NNE
Cosmos 2297 Rocket 2.5 16:54:14 10° SSW 16:59:52 72° WNW 17:05:33 10° NNE
USA 234 3.3 16:53:31 10° ESE 17:00:01 72° NE 17:06:32 10° NW
Cosmos 2263 Rocket 3.7 17:03:43 10° SE 17:06:44 15° E 17:09:19 11° ENE
Atlas Centaur 2 4.0 17:06:56 10° SSW 17:08:45 12° S 17:10:42 10° SE
YAOGAN 6 2.6 17:05:13 10° SSE 17:08:49 62° ENE 17:12:25 10° N
H-2A R/B 4.2 17:05:58 10° S 17:09:39 43° W 17:13:23 10° NNW
ADEOS Rocket 4.3 17:05:38 10° NE 17:11:10 25° E 17:17:00 10° SE
Cosmos 2227 Rocket 2.7 17:07:43 10° SW 17:13:19 62° WNW 17:18:56 10° NNE
ERBS 4.5 17:11:22 10° WNW 17:13:43 18° NNW 17:16:03 10° NNE
NOAA 12 4.3 17:10:20 10° S 17:15:34 76° WSW 17:20:50 10° NNW
Cosmos 2341 Rocket 4.3 17:11:06 10° SSW 17:17:27 74° W 17:23:48 10° N
SMAP 4.5 17:13:50 10° S 17:18:14 43° W 17:22:42 10° NNW
Cosmos 1953 Rocket 3.8 17:24:05 10° SSW 17:28:34 75° W 17:33:04 10° N
Cosmos 1328 3.8 17:26:04 10° S 17:30:06 86° W 17:34:08 10° N
Cosmos 1943 4.0 17:25:15 10° N 17:30:06 28° NE 17:33:47 15° ESE
Cosmos 864 Rocket 4.4 17:24:03 10° S 17:30:09 78° E 17:36:19 10° N
CZ-4 R/B 1.3 17:27:57 10° SSE 17:32:01 69° ENE 17:36:11 10° N
COSMO-SKYMED 1 2.5 17:28:19 10° NNE 17:32:42 84° ESE 17:37:02 10° SSW
Cosmos 1842 Rocket 3.8 17:29:22 10° N 17:33:41 46° ENE 17:38:00 10° SSE
FengYun 1-2 T 4.4 17:29:35 10° SSE 17:35:14 82° WSW 17:40:57 10° NNW
Starlink AR 4.3 17:34:31 10° NNW 17:36:30 18° NNE 17:36:36 18° NNE
Cosmos 2218 Rocket 4.2 17:33:13 10° S 17:39:34 82° W 17:46:02 10° N
ATLAS CENTAUR R/B 1.2 17:35:37 10° NW 17:39:37 83° WSW 17:43:19 10° SSE
CSL-04 Debris 4.1 17:35:46 10° SSE 17:41:04 66° ENE 17:46:28 10° N
Cosmos 44 Rocket 3.5 17:36:29 10° SSW 17:41:06 48° ESE 17:43:54 22° NE
Meteor 2-12 Rocket 4.4 17:37:21 10° S 17:43:14 59° E 17:49:11 10° NNE
SL-08 R/B 4.5 17:38:22 10° S 17:44:40 74° E 17:51:06 10° NNE
Cosmos 1140 Rocket 4.5 17:40:50 10° N 17:45:10 25° ENE 17:46:04 24° ENE
SL-8 R/B 4.0 17:43:38 10° W 17:48:23 57° N 17:50:52 27° ENE
Shenzhou-11 Module 2.2 17:46:03 10° W 17:48:41 52° S 17:49:17 41° SE
Cosmos 2251 Rocket 4.1 17:46:02 10° NNW 17:51:17 62° WSW 17:56:32 10° S
H-2A R/B 3.2 17:55:39 22° NE 17:55:39 22° NE 17:58:37 10° N
Cosmos 1703 4.4 17:51:07 10° SSW 17:54:55 45° WNW 17:58:46 10° N
USA 116 2.9 17:53:20 24° NNE 17:55:04 78° ESE 17:58:11 10° S
Cosmos 1934 Rocket 4.4 17:54:35 10° SSE 17:59:56 34° E 18:05:19 10° NNE
CSL-04 Rocket 3.7 17:54:43 10° SSE 18:00:14 88° WSW 18:05:50 10° NNW
Cosmos 1000 Rocket 4.5 17:55:23 10° N 18:01:32 59° ENE 18:07:41 10° SSE
Cosmos 1356 Rocket 3.9 17:58:09 10° NNW 18:02:11 61° W 18:06:15 10° S
Cosmos 2221 2.3 18:00:32 10° N 18:04:50 73° E 18:09:07 10° SSE
IRS-1A Rocket 4.5 18:00:28 10° SE 18:05:55 48° ENE 18:11:18 10° N
USA 267 4.0 18:03:51 18° NE 18:08:27 44° NNW 18:14:33 10° W
NOSS 3-2 (C) 4.4 18:05:49 10° SSE 18:09:28 24° SE 18:09:28 24° SE
Cosmos 1076 Rocket 3.6 18:06:31 10° SSE 18:10:40 48° E 18:10:41 48° E
ISS -2.0 18:16:45 10° WNW 18:19:21 24° NNW 18:19:21 24° NNW
CZ-2D R/B 3.9 18:16:56 10° S 18:20:42 55° W 18:24:29 10° NNW
Cosmos 1371 Rocket 4.0 18:15:59 10° S 18:21:02 58° ESE 18:22:04 48° ENE
CENTAUR R/B 3.8 18:16:46 10° SSE 18:19:01 19° SE 18:19:01 19° SE
Cosmos 407 Rocket 3.4 18:17:24 10° NNW 18:22:41 68° ENE 18:24:46 36° SE
Cosmos 1190 Rocket 4.0 18:18:14 10° NNW 18:23:31 60° ENE 18:24:43 47° ESE
Cosmos 1869 4.3 18:19:48 10° N 18:22:05 32° N 18:22:05 32° N
Cosmos 1939 Rocket 3.7 18:21:19 10° S 18:25:09 50° W 18:29:03 10° NNW
In-Cosmos 22 Rocket 4.2 18:20:00 10° S 18:25:28 52° E 18:26:19 48° ENE
Fregat R/B Cluster 11 4.4 18:23:52 10° SSW 18:26:59 84° SE 18:37:00 10° NE
NOSS 3-2 (A) 3.4 18:21:52 10° SSW 18:27:22 53° ESE 18:28:18 48° E
SL-16 R/B 4.4 18:26:54 10° NW 18:31:24 25° WSW 18:35:54 10° SSW
YAOGAN 1 4.3 18:30:28 10° SSW 18:34:21 32° W 18:38:16 10° NNW
Cosmos 2227 4.2 18:30:28 10° SSW 18:36:13 80° WNW 18:39:03 31° NNE
SJ-11-01 4.1 18:39:25 82° ESE 18:39:31 83° ENE 18:44:16 10° NNW
Cosmos 2058 4.2 18:37:09 10° S 18:39:19 30° S 18:39:19 30° S
Ariane Rocket 3.0 18:38:05 10° SSE 18:43:09 79° WSW 18:48:17 10° NNW
ARGOS 4.0 18:46:23 35° NNE 18:46:23 35° NNE 18:49:37 10° N
Cosmos 1603 3.9 18:39:19 10° NNW 18:44:58 67° WSW 18:48:56 20° S
Cosmos 1624 Rocket 3.8 18:42:47 10° SSW 18:48:05 86° ESE 18:48:11 85° ENE
Cosmos 2263 Rocket 2.1 18:44:20 10° SSW 18:49:53 80° WNW 18:51:06 56° NNE
CZ-2C R/B 4.2 18:57:36 35° N 18:57:36 35° N 19:00:55 10° N
Atlas Centaur 2 4.1 18:54:17 10° SW 18:56:40 14° S 18:56:42 14° S
ADEOS Rocket 3.6 18:50:15 10° N 18:57:02 70° WNW 19:04:27 10° SSW
Cosmos 2056 Rocket 3.7 18:58:49 10° SSW 19:03:46 70° W 19:03:46 70° W
USA 238 DEB 3.6 19:01:13 10° SW 19:07:54 80° NW 19:08:59 65° NNE
USA 238 3.6 19:01:20 10° SW 19:08:01 80° NW 19:09:02 66° NNE
Cosmos 1943 3.9 19:08:58 10° NW 19:14:24 51° WSW 19:15:42 42° SSW
H-2A R/B 3.8 19:36:15 26° NW 19:36:15 26° NW 19:38:40 10° NNW
